[[{"header":{"parameterUnit":"m.s-1","parameterCategory":1,"la1":30.2991,"la2":30.254,"lo1":-89.0895,"lo2":-89.0444,"dy":0.0017,"dx":0.0017,"nx":28,"ny":28,"refTime":"2025-04-11T21:00:00:Z","depth":0,"parameterNumber":2,"parameterNumberName":"U-component_of_WINDS"},"data":[0,0,0,0,0,0,0,0,0,0,0,0,0,0,0,0,0,0,0,0,0,0,0,0,0,0,0,0,0,0,0,0,0,0,0,0,0,0,0,0,0,0,0,0,0,0,0,0,0,0,0,0,0,0,0,0,0,0,-3.1193,-3.1194,0,-3.1295,-3.1297,-3.1298,-3.1301,-3.13,-3.1298,-3.1297,-3.14,-3.1404,-3.1408,0,0,0,0,0,0,0,0,0,0,0,0,0,-3.0996,-3.1,-3.1193,-3.1194,-3.1195,-3.1295,-3.1297,-3.1298,-3.1301,-3.13,-3.1298,-3.1297,-3.1399,-3.1403,-3.1408,0,0,0,0,0,0,0,0,0,0,0,0,0,-3.1088,-3.1001,-3.1192,-3.1209,-3.1211,-3.1295,-3.1297,-3.1298,-3.1301,-3.13,-3.1298,-3.1296,-3.1397,-3.1403,-3.1409,-3.1482,0,0,-3.1427,-3.1429,0,0,0,0,0,0,0,0,-3.1083,-3.1096,-3.1205,-3.1208,-3.1211,-3.1284,-3.1265,-3.136,-3.1302,-3.1267,-3.1297,-3.1295,-3.1363,-3.1371,-3.1395,-3.1487,-3.1491,-3.1427,-3.1431,-3.1433,-3.1435,0,0,0,0,0,0,0,-3.1077,-3.1091,-3.1233,-3.1207,-3.121,-3.121,-3.1221,-3.1283,-3.1324,-3.127,-3.1271,-3.1283,-3.1364,-3.1389,-3.1397,-3.1493,-3.1427,-3.1432,-3.1436,-3.1438,-3.1648,-3.165,0,0,0,0,0,0,-3.1068,-3.1086,-3.123,-3.1236,-3.1141,-3.1215,-3.1228,-3.1262,-3.1323,-3.1331,-3.1284,-3.1283,-3.138,-3.139,-3.1401,-3.1488,-3.1433,-3.1439,-3.1442,-3.1646,-3.1649,-3.1651,0,0,0,0,0,0,-3.1063,-3.108,-3.1226,-3.1161,-3.118,-3.1221,-3.1259,-3.1265,-3.129,-3.1334,-3.1341,-3.1302,-3.1379,-3.1392,-3.1461,-3.1492,-3.1441,-3.1447,-3.1644,-3.1647,-3.165,-3.1666,0,0,0,0,0,0,-3.1058,-3.1079,-3.1108,-3.1162,-3.1183,-3.1286,-3.1261,-3.1268,-3.13,-3.1299,-3.1353,-3.136,-3.1378,-3.1453,-3.1467,-3.1499,-3.1451,-3.1641,-3.1645,-3.1649,-3.1662,-3.1669,-3.1674,0,0,0,0,0,-3.1051,-3.1108,-3.1109,-3.1127,-3.122,-3.1287,-3.13,-3.132,-3.1303,-3.1331,-3.136,-3.1358,-3.1487,-3.146,-3.1476,-3.151,-3.1639,-3.1644,-3.1649,-3.166,-3.1668,-3.1674,0,0,0,0,0,0,-3.1056,-3.1115,-3.1117,-3.1194,-3.1236,-3.1288,-3.1325,-3.1328,-3.1374,-3.1371,-3.1394,-3.1406,-3.1474,-3.15,-3.1468,-3.1583,-3.1561,-3.1569,-3.1564,-3.1572,-3.1577,-3.1568,-3.1456,0,0,0,0,0,-3.1066,-3.1116,-3.1166,-3.1228,-3.1249,-3.1284,-3.1314,-3.1326,-3.1369,-3.1387,-3.142,-3.1462,-3.1511,-3.1543,-3.1592,-3.1667,-3.1678,-3.1699,-3.1705,-3.1709,-3.1715,-3.1755,-3.1764,-3.1667,-3.1666,-3.1666,0,0,-3.1087,-3.1126,-3.1156,-3.123,-3.1264,-3.1314,-3.1298,-3.1353,-3.1389,-3.1395,-3.1461,-3.1488,-3.1536,-3.1608,-3.1641,-3.1631,-3.1745,-3.1715,-3.1719,-3.1722,-3.176,-3.1769,-3.1778,-3.167,-3.1669,-3.1669,0,0,-3.115,-3.1186,-3.1241,-3.1276,-3.1327,-3.1349,-3.1362,-3.1414,-3.1432,-3.15,-3.1504,-3.1548,-3.1634,-3.1667,-3.1696,-3.1772,-3.1771,-3.1787,-3.1817,-3.1855,-3.1863,-3.1869,-3.1894,-3.1903,-3.1794,-3.1794,-3.1794,0,-3.117,-3.1246,-3.1269,-3.1323,-3.1354,-3.1363,-3.1418,-3.145,-3.1514,-3.1535,-3.1523,-3.163,-3.1663,-3.1742,-3.176,-3.1784,-3.1798,-3.1779,-3.186,-3.1867,-3.1874,-3.1897,-3.1907,-3.1795,-3.1795,-3.1795,-3.1794,0,-3.1266,-3.1319,-3.1358,-3.1419,-3.1456,-3.151,-3.154,-3.1574,-3.1583,-3.1606,-3.1674,-3.1715,-3.177,-3.1791,-3.18,-3.187,-3.1862,-3.1855,-3.1833,-3.1884,-3.1906,-3.1916,-3.1797,-3.1796,-3.1796,-3.1796,0,0,-3.1334,-3.1408,-3.1421,-3.1448,-3.1506,-3.1547,-3.1601,-3.1656,-3.1683,-3.1728,-3.1772,-3.1845,-3.1838,-3.187,-3.1884,-3.1918,-3.1973,-3.1907,-3.1908,-3.1915,-3.205,-3.2052,-3.2062,-3.1974,-3.1976,-3.1978,-3.2045,0,-3.1401,-3.1498,-3.152,-3.1602,-3.165,-3.1659,-3.1706,-3.1746,-3.1769,-3.1813,-3.1839,-3.1888,-3.1878,-3.1897,-3.1931,-3.1959,-3.2,-3.1955,-3.2014,-3.2016,-3.1998,-3.2075,-3.2078,-3.2139,-3.2054,-3.2055,-3.2057,0,-3.1492,-3.1538,-3.1625,-3.1675,-3.1696,-3.1738,-3.1789,-3.1832,-3.1876,-3.1891,-3.1927,-3.1937,-3.1992,-3.197,-3.2045,-3.2014,-3.204,-3.2058,-3.206,-3.2064,-3.2037,-3.2077,-3.2159,-3.2167,-3.2071,-3.207,-3.2069,0,-3.1529,-3.1613,-3.1676,-3.1699,-3.176,-3.1788,-3.1815,-3.1858,-3.1889,-3.1934,-3.1954,-3.2006,-3.2033,-3.2072,-3.2095,-3.2076,-3.2168,-3.2147,-3.218,-3.2179,-3.2196,-3.2194,-3.228,-3.2218,-3.2218,-3.2217,-3.2217,0,-3.16,-3.1652,-3.1692,-3.1731,-3.1789,-3.1814,-3.1871,-3.1897,-3.1936,-3.1978,-3.199,-3.2029,-3.2059,-3.2103,-3.2122,-3.218,-3.2193,-3.2205,-3.2209,-3.2202,-3.22,-3.2217,-3.2212,-3.222,-3.2219,-3.2219,-3.2218,0,-3.1649,-3.1679,-3.1747,-3.1799,-3.1813,-3.1853,-3.1897,-3.1934,-3.1958,-3.2012,-3.2026,-3.2063,-3.2115,-3.2143,-3.2208,-3.2221,-3.2285,-3.2288,-3.227,-3.227,-3.23,-3.2296,-3.2397,-3.2411,-3.2342,-3.2343,-3.2344,0,-3.1691,-3.1731,-3.1787,-3.1816,-3.1843,-3.1891,-3.1923,-3.1949,-3.1981,-3.2035,-3.2065,-3.2118,-3.2161,-3.2243,-3.2275,-3.2325,-3.2327,-3.236,-3.2335,-3.2326,-3.2324,-3.232,-3.2323,-3.2363,-3.2363,-3.2364,-3.2364,0,-3.1761,-3.1773,-3.1819,-3.187,-3.1907,-3.1948,-3.1989,-3.2012,-3.2045,-3.2081,-3.2134,-3.2167,-3.2234,-3.2285,-3.2337,-3.2363,-3.2368,-3.2372,-3.2382,-3.2374,-3.236,-3.2365,-3.2278,-3.2369,-3.2369,-3.2368,-3.2368,-3.2368,-3.1806,-3.1841,-3.1885,-3.1935,-3.1969,-3.2006,-3.2043,-3.2072,-3.2117,-3.2172,-3.2186,-3.2241,-3.2284,-3.2354,-3.2382,-3.2425,-3.2419,-3.2433,-3.2437,-3.2439,-3.2438,-3.2356,-3.2435,-3.2435,-3.2435,-3.2435,-3.2435,0,-3.1874,-3.1903,-3.1949,-3.2005,-3.2044,-3.2047,-3.2092,-3.2124,-3.2173,-3.2213,-3.2255,-3.2315,-3.2365,-3.2402,-3.2452,-3.248,-3.2483,-3.2492,-3.2488,-3.2494,-3.2443,-3.2428,-3.2488,-3.2488,-3.2488,-3.2488,-3.2488,-3.2488,-3.1913,-3.1972,-3.199,-3.2066,-3.2095,-3.2149,-3.2174,-3.2208,-3.224,-3.2307,-3.2348,-3.2372,-3.2411,-3.2464,-3.2509,-3.2519,-3.2536,-3.2543,-3.2553,-3.2504,-3.2498,-3.2492,-3.2478,-3.2548,-3.2548,-3.26,-3.26,-3.2601]},{"header":{"parameterUnit":"m.s-1","parameterCategory":1,"la1":30.2991,"la2":30.254,"lo1":-89.0895,"lo2":-89.0444,"dy":0.0017,"dx":0.0017,"nx":28,"ny":28,"refTime":"2025-04-11T21:00:00:Z","depth":0,"parameterNumber":3,"parameterNumberName":"V-component_of_WINDS"},"data":[0,0,0,0,0,0,0,0,0,0,0,0,0,0,0,0,0,0,0,0,0,0,0,0,0,0,0,0,0,0,0,0,0,0,0,0,0,0,0,0,0,0,0,0,0,0,0,0,0,0,0,0,0,0,0,0,0,0,1.4197,1.4197,0,1.4263,1.4264,1.4265,1.4266,1.4265,1.4264,1.4263,1.433,1.4332,1.4335,0,0,0,0,0,0,0,0,0,0,0,0,0,1.4069,1.4071,1.4197,1.4197,1.4198,1.4263,1.4264,1.4265,1.4266,1.4265,1.4264,1.4263,1.4329,1.4332,1.4335,0,0,0,0,0,0,0,0,0,0,0,0,0,1.4129,1.4072,1.4196,1.4207,1.4208,1.4263,1.4264,1.4265,1.4266,1.4265,1.4264,1.4262,1.4328,1.4332,1.4336,1.4384,0,0,1.4347,1.4349,0,0,0,0,0,0,0,0,1.4125,1.4133,1.4204,1.4206,1.4208,1.4255,1.4244,1.4305,1.4266,1.4244,1.4263,1.4262,1.4306,1.4311,1.4327,1.4387,1.439,1.4348,1.435,1.4352,1.4353,0,0,0,0,0,0,0,1.4121,1.4131,1.4223,1.4205,1.4208,1.4207,1.4215,1.4255,1.4281,1.4246,1.4246,1.4254,1.4307,1.4323,1.4328,1.4391,1.4347,1.4351,1.4353,1.4355,1.4495,1.4497,0,0,0,0,0,0,1.4115,1.4127,1.4221,1.4225,1.4163,1.4211,1.4219,1.4241,1.4281,1.4286,1.4255,1.4254,1.4317,1.4324,1.4331,1.439,1.4351,1.4355,1.4357,1.4494,1.4496,1.4497,0,0,0,0,0,0,1.4113,1.4124,1.4218,1.4176,1.4188,1.4214,1.4239,1.4243,1.4259,1.4288,1.4292,1.4267,1.4316,1.4325,1.4371,1.4392,1.4357,1.436,1.4492,1.4494,1.4496,1.4509,0,0,0,0,0,0,1.4109,1.4123,1.4142,1.4177,1.419,1.4258,1.4241,1.4245,1.4266,1.4265,1.43,1.4305,1.4316,1.4365,1.4375,1.4397,1.4363,1.449,1.4493,1.4496,1.4507,1.4512,1.4515,0,0,0,0,0,1.4104,1.4142,1.4142,1.4154,1.4215,1.4259,1.4267,1.428,1.4268,1.4287,1.4305,1.4304,1.4389,1.437,1.4381,1.4404,1.4489,1.4492,1.4496,1.4505,1.4511,1.4515,0,0,0,0,0,0,1.4108,1.4147,1.4148,1.4198,1.4225,1.4259,1.4283,1.4285,1.4316,1.4314,1.4328,1.4336,1.4381,1.4398,1.4376,1.4454,1.4437,1.4443,1.4441,1.4447,1.4451,1.4445,1.4366,0,0,0,0,0,1.4115,1.4148,1.418,1.4221,1.4235,1.4257,1.4277,1.4284,1.4313,1.4324,1.4346,1.4373,1.4406,1.4427,1.4459,1.451,1.4517,1.4531,1.4536,1.4539,1.4543,1.4571,1.4577,1.4508,1.4508,1.4508,0,0,1.4129,1.4154,1.4174,1.4223,1.4245,1.4278,1.4267,1.4303,1.4328,1.433,1.4374,1.4391,1.4423,1.4471,1.4493,1.4486,1.4564,1.4543,1.4546,1.4548,1.4575,1.4581,1.4587,1.451,1.451,1.4509,0,0,1.4171,1.4194,1.4231,1.4254,1.4288,1.4302,1.4311,1.4345,1.4357,1.4402,1.4404,1.4434,1.4491,1.4513,1.4532,1.4584,1.4583,1.4594,1.4616,1.4643,1.4648,1.4653,1.4671,1.4677,1.4599,1.4599,1.4599,0,1.4184,1.4235,1.425,1.4286,1.4307,1.4312,1.4349,1.437,1.4412,1.4427,1.4418,1.449,1.4511,1.4565,1.4578,1.4593,1.4603,1.459,1.4646,1.4651,1.4656,1.4673,1.468,1.46,1.46,1.4599,1.4599,0,1.4249,1.4285,1.4311,1.4352,1.4376,1.4413,1.4432,1.4455,1.4461,1.4477,1.4523,1.4549,1.4586,1.46,1.4606,1.4655,1.4649,1.4643,1.4627,1.4664,1.468,1.4687,1.4601,1.4601,1.46,1.46,0,0,1.4295,1.4345,1.4354,1.4373,1.4411,1.4438,1.4475,1.4513,1.4532,1.4561,1.4592,1.464,1.4636,1.4657,1.4665,1.4689,1.4729,1.4681,1.4682,1.4688,1.4783,1.4786,1.4794,1.4729,1.473,1.4732,1.478,0,1.4341,1.4407,1.4421,1.4478,1.4511,1.4516,1.4548,1.4575,1.4591,1.4621,1.4638,1.4672,1.4663,1.4676,1.47,1.4719,1.4748,1.4716,1.4757,1.4758,1.4748,1.4803,1.4806,1.4851,1.4787,1.4788,1.4789,0,1.4403,1.4435,1.4495,1.4529,1.4543,1.4572,1.4607,1.4636,1.4667,1.4676,1.4701,1.4707,1.4745,1.4729,1.4781,1.4759,1.4777,1.4789,1.4791,1.4795,1.4775,1.4806,1.4866,1.4872,1.4799,1.4799,1.4798,0,1.4429,1.4487,1.453,1.4546,1.4587,1.4607,1.4625,1.4655,1.4676,1.4708,1.4722,1.4757,1.4775,1.4802,1.4818,1.4804,1.4869,1.4854,1.4878,1.4877,1.489,1.4889,1.4952,1.4904,1.4904,1.4903,1.4903,0,1.4478,1.4514,1.4542,1.4569,1.461,1.4626,1.4666,1.4684,1.471,1.474,1.4747,1.4775,1.4795,1.4825,1.4838,1.4879,1.4888,1.4896,1.4899,1.4895,1.4894,1.4906,1.4903,1.4905,1.4905,1.4904,1.4904,0,1.4513,1.4534,1.4581,1.4617,1.4627,1.4655,1.4685,1.4711,1.4728,1.4765,1.4775,1.4801,1.4837,1.4856,1.4901,1.491,1.4956,1.4957,1.4946,1.4946,1.4969,1.4966,1.5041,1.5051,1.4998,1.4998,1.4998,0,1.4543,1.4571,1.461,1.4631,1.4649,1.4683,1.4705,1.4723,1.4746,1.4783,1.4804,1.4841,1.4872,1.493,1.4952,1.4987,1.4988,1.5012,1.4993,1.4988,1.4987,1.4985,1.4988,1.5015,1.5015,1.5016,1.5016,0,1.4593,1.4602,1.4634,1.467,1.4696,1.4725,1.4753,1.477,1.4792,1.4818,1.4855,1.4879,1.4926,1.4962,1.4999,1.5017,1.502,1.5022,1.5029,1.5025,1.5016,1.502,1.4953,1.502,1.5019,1.5019,1.5019,1.5019,1.4625,1.4651,1.4682,1.4718,1.4741,1.4768,1.4794,1.4814,1.4846,1.4885,1.4894,1.4934,1.4964,1.5014,1.5033,1.5064,1.5059,1.507,1.5072,1.5074,1.5075,1.5013,1.5071,1.5071,1.5071,1.5071,1.5071,0,1.4675,1.4696,1.4728,1.4768,1.4796,1.4798,1.483,1.4853,1.4888,1.4916,1.4946,1.499,1.5025,1.5051,1.5087,1.5107,1.5109,1.5116,1.5114,1.5118,1.5078,1.5067,1.5113,1.5113,1.5113,1.5113,1.5113,1.5113,1.4704,1.4746,1.4759,1.4813,1.4834,1.4873,1.4891,1.4916,1.4938,1.4987,1.5016,1.5033,1.5061,1.5099,1.5132,1.5138,1.5151,1.5157,1.5164,1.5125,1.5121,1.5116,1.5107,1.516,1.516,1.5201,1.5201,1.5202]}]]